Regional Weather Roundup
Issued by NWS Northern Indiana

Home | Current Version | Previous Version | Graphics & Text | Print | Product List | Glossary On
Versions: 1 2 3 4 5 6 7 8 9 10 11 12 13 14 15 16 17 18 19 20 21 22 23 24 25 26 27 28 29 30 31 32 33 34 35 36 37 38 39 40 41 42 43 44 45 46 47 48 49 50
646
ASUS43 KIWX 271610
RWRIWX

KIWX WEATHER ROUNDUP
NATIONAL WEATHER SERVICE NORTHERN INDIANA
1200 PM EDT THU APR 27 2017

NOTE: "FAIR" INDICATES FEW OR NO CLOUDS BELOW 12,000 FEET WITH NO
SIGNIFICANT WEATHER AND/OR OBSTRUCTIONS TO VISIBILITY.

* THESE STATIONS ARE NOT UNDER NWS QUALITY CONTROL. THEY ALSO MAY NOT
  REPORT WEATHER SUCH AS PRECIPITATION OR FOG.

INZ001>027-271700-
NORTHERN INDIANA

CITY           SKY/WX    TMP DP  RH WIND       PRES   REMARKS
GARY*          CLOUDY    48  41  76 W17G29    29.57R
VALPARAISO     CLOUDY    49  42  77 SW26G35   29.58R
MICHIGAN CITY* CLOUDY    50  41  71 SW17G26   29.57R
LAPORTE*       CLOUDY    48  43  81 SW21G26   29.57R
KNOX*          CLOUDY    46  30  53 SW18G28   29.58R
SOUTH BEND     CLOUDY    51  43  74 SW18G33   29.57R
ELKHART*       CLOUDY    52  45  76 SW20G25   29.56R
GOSHEN         CLOUDY    53  43  68 SW22G29   29.57R
MONTICELLO*    CLOUDY    49  43  80 W16G26    29.62R
LOGANSPORT*    CLOUDY    50  43  76 W23G30    29.63R
ROCHESTER*     CLOUDY    52  43  71 W17G28    29.61R
WARSAW*        CLOUDY    50  43  76 SW16G26   29.59R
ANGOLA*        CLOUDY    63  54  72 SW23G32   29.52R
FORT WAYNE     PTSUNNY   59  49  69 SW24G35   29.57R
HUNTINGTON*    CLOUDY    56  48  75 W17G24    29.60R
PERU/GRISSOM   CLOUDY    51  46  81 W21G29    29.61R
MARION*        CLOUDY    54  46  76 W26       29.64R

$$
INZ028>050-271700-
CENTRAL INDIANA

CITY           SKY/WX    TMP DP  RH WIND       PRES   REMARKS
LAFAYETTE      CLOUDY    49  43  80 W10G21    29.64R
KOKOMO*        CLOUDY    52  45  77 SW24      29.64R
MUNCIE*        CLOUDY    58  51  78 W20       29.61R
INDIANAPOLIS   CLOUDY    54  47  77 W15       29.66R

$$
MIZ043>046-050>051-056>058-064>065-071>073-077>080-271700-
SOUTHWEST LOWER MICHIGAN

CITY           SKY/WX    TMP DP  RH WIND       PRES   REMARKS
BATTLE CREEK   CLOUDY    64  49  57 SW25G39   29.48R
BENTON HARBOR  CLOUDY    50  42  74 W24G32    29.55R
COLDWATER*     CLOUDY    61  50  67 SW28G33   29.52R
HILLSDALE*     HVY RAIN  61  54  77 SW14      29.51R
HOLLAND        CLOUDY    49  46  90 SW26G33   29.52R FOG
GRAND RAPIDS   PTSUNNY   57  48  72 SW33G41   29.48R
KALAMAZOO      PTSUNNY   59  45  59 SW22G35   29.52R
STURGIS*       CLOUDY    56  47  71 W20G30    29.54R
THREE RIVERS*  CLOUDY    57  46  66 W15G23    29.54R

$$
OHZ001>008-015>018-024>025-271700-
NORTHWEST OHIO

CITY           SKY/WX    TMP DP  RH WIND       PRES   REMARKS
WAUSEON*       FAIR      61  59  94 S18       29.53F FOG
DEFIANCE       CLOUDY    61  58  90 S13G23    29.53S
FINDLAY        LGT RAIN  64  58  80 SW15G22   29.56R
TOLEDO EXPRESS LGT RAIN  61  59  93 SW10      29.55R
TOLEDO METCALF LGT RAIN  63  59  87 SW21G31   29.56R
LIMA           CLOUDY    63  60  90 SW18G26   29.57F

$$
AND FOR LAKE MICHIGAN COASTAL AND OPEN LAKE BUOY OBSERVATIONS

STATION/POSITION TEMP    WIND        PRES    VSBY  WAVE
                 AIR SEA DIR/SP/G                  HT/PER
                 (F)     (DEG/KT/KT) (MB)    (MI)  (FT/S)
CALUMET HARBOR    47     230/ 14/ 19 1000.4R
MICHIGAN CITY     47     230/ 23/ 24   N/A
BURNS HARBOR      48     240/ 20/ 25 1001.4R
SOUTH LAKE BUOY   44 41  260/ 17/ 21  996.8          4/ 4
4 MI NW BRIDGMAN  47 47  250/ 17/ 23 1001.6          6/ 5
MICHIGAN CITY     47 48                N/A           6/ 5

$$
&&




USA.gov is the U.S. government's official web portal to all federal, state and local government web resources and services.